Location: Banios
(43.0451°N, 0.2335°E)
Time: 01:31:44
(UTC+00:00)

N. Korean satellite - Visible Passes

Search period start: 01 December 2021 00:00
Search period end: 11 December 2021 00:00
Orbit: 447 x 495 km, 97.3° (Epoch: 30 November)

Date Brightness Start Highest point End Pass type
(mag) Time Alt. Az. Time Alt. Az. Time Alt. Az.
01 Dec 8.4 04:44:47 10° NE 04:47:48 29° E 04:50:47 10° SSE visible
01 Dec 8.0 06:18:40 10° NNW 06:20:46 16° WNW 06:22:50 10° WSW visible
01 Dec 8.3 16:52:21 10° SSW 16:55:41 37° W 16:58:59 10° NNW visible
02 Dec 9.7 04:17:28 10° ENE 04:19:08 13° E 04:20:48 10° ESE visible
02 Dec 7.0 05:49:22 10° N 05:52:28 33° WNW 05:55:32 10° SW visible
03 Dec 6.2 05:20:39 10° N 05:24:03 85° WNW 05:27:25 10° SSW visible
03 Dec 9.8 17:30:13 10° WSW 17:32:03 14° W 17:33:54 10° WNW visible
04 Dec 7.9 04:52:19 10° NNE 04:55:30 37° E 04:58:39 10° SSE visible
04 Dec 8.2 06:26:47 10° NW 06:28:22 13° WNW 06:29:56 10° W visible
04 Dec 8.8 17:00:15 10° SSW 17:03:23 29° W 17:06:29 10° NW visible
05 Dec 9.4 04:24:38 10° NE 04:26:50 16° E 04:29:03 10° SE visible
05 Dec 7.3 05:57:10 10° NNW 06:00:04 27° WNW 06:02:57 10° SW visible
06 Dec 6.3 05:28:17 10° N 05:31:39 65° WNW 05:35:00 10° SSW visible
06 Dec 10.1 17:38:51 10° WSW 17:39:44 11° W 17:40:37 10° WNW visible
07 Dec 7.4 04:59:49 10° NNE 05:03:07 47° E 05:06:23 10° S visible
07 Dec 8.4 06:35:14 10° NW 06:35:52 10° WNW 06:36:29 10° WNW visible
07 Dec 9.2 17:08:07 10° SSW 17:11:00 23° W 17:13:52 10° NW visible
08 Dec 9.1 04:31:51 10° NE 04:34:27 20° E 04:37:02 10° SE visible
08 Dec 7.6 06:04:54 10° NNW 06:07:35 22° WNW 06:10:14 10° WSW visible
09 Dec 6.5 05:35:51 10° N 05:39:09 50° WNW 05:42:27 10° SSW visible
10 Dec 6.8 05:07:15 10° NNE 05:10:37 62° E 05:13:58 10° S visible
10 Dec 9.5 17:15:59 10° SW 17:18:32 19° W 17:21:05 10° NW visible
